DW6102 Weather Reports


time (UTC)temp
C
wind
direction
speed
KPH
gust
KPH
rain 1hr
cm
rain 24hr
cm
rain mn
cm
humidity
%
barometer
mb
20260502151612 26 90 0.0 4.8 0.00 0.00 0.00 33 1009.2
20260502123001 15 122 0.0 0.0 0.00 0.00 0.00 51 1007.3
20260502121559 15 122 0.0 0.0 0.00 0.00 0.00 51 1007.1
20260502114536 16 122 0.0 0.0 0.00 0.00 0.00 49 1006.9
20260502113022 16 122 0.0 0.0 0.00 0.00 0.00 47 1006.8
20260502111520 16 122 0.0 0.0 0.00 0.00 0.00 46 1006.8
20260502110019 17 122 0.0 0.0 0.00 0.00 0.00 45 1006.7
20260502104514 17 122 0.0 0.0 0.00 0.00 0.00 43 1006.7
20260502103011 17 123 0.0 0.0 0.00 0.00 0.00 42 1006.5
20260502101512 17 123 0.0 0.0 0.00 0.00 0.00 43 1006.5
20260502071517 19 295 0.0 0.0 0.00 0.00 0.00 34 1005.6
20260502070100 19 295 0.0 0.0 0.00 0.00 0.00 31 1005.4
20260502064603 20 295 0.0 0.0 0.00 0.00 0.00 32 1005.5
20260502063048 20 295 0.0 0.0 0.00 0.00 0.00 31 1005.5
20260502061545 21 295 0.0 0.0 0.00 0.00 0.00 29 1005.5
20260502060045 21 295 0.0 1.6 0.00 0.00 0.00 29 1005.3
20260502054545 21 295 0.0 1.6 0.00 0.00 0.00 31 1005.1
20260502053044 21 295 0.0 0.0 0.00 0.00 0.00 33 1004.9
20260502051544 21 295 0.0 1.6 0.00 0.00 0.00 35 1004.9
20260502050042 21 295 0.0 0.0 0.00 0.00 0.00 37 1004.8
20260502044542 22 295 0.0 0.0 0.00 0.00 0.00 38 1004.8
20260502043024 22 295 0.0 0.0 0.00 0.00 0.00 32 1004.7
20260502041524 22 295 0.0 0.0 0.00 0.00 0.00 33 1004.6
20260502040010 23 295 0.0 0.0 0.00 0.00 0.00 31 1004.4
20260502034507 23 295 0.0 0.0 0.00 0.00 0.00 27 1004.2
20260502033049 24 295 0.0 0.0 0.00 0.00 0.00 26 1004.0
20260502031548 25 295 0.0 0.0 0.00 0.00 0.00 23 1003.8
20260502030030 25 295 0.0 0.0 0.00 0.00 0.00 21 1003.5
20260502024529 26 295 0.0 0.0 0.00 0.00 0.00 21 1003.4
20260502023012 27 295 0.0 0.0 0.00 0.00 0.00 19 1003.3
20260502021515 28 297 0.0 1.6 0.00 0.00 0.00 18 1003.2
20260502020054 30 296 0.0 1.6 0.00 0.00 0.00 17 1003.0
20260502014553 31 294 1.6 3.2 0.00 0.00 0.00 15 1003.0
20260502013044 31 297 0.0 4.8 0.00 0.00 0.00 16 1003.0
20260502011535 31 305 0.0 6.4 0.00 0.00 0.00 15 1003.0
20260502010116 31 305 1.6 6.4 0.00 0.00 0.00 17 1003.0
20260502004531 31 293 1.6 6.4 0.00 0.00 0.00 16 1003.0
20260502003057 32 260 1.6 11.3 0.00 0.00 0.00 16 1002.9
20260502001558 32 312 1.6 6.4 0.00 0.00 0.00 17 1002.9
20260502000051 32 246 3.2 8.0 0.00 0.00 0.00 17 1003.0
20260501234538 32 297 0.0 4.8 0.00 0.00 0.00 18 1002.9
20260501233020 32 51 0.0 4.8 0.00 0.00 0.00 20 1003.1
20260501231529 32 266 0.0 6.4 0.00 0.00 0.00 19 1003.3
20260501230100 31 313 1.6 6.4 0.00 0.00 0.00 21 1003.2
20260501224600 31 308 3.2 6.4 0.00 0.00 0.00 20 1003.4
20260501223040 32 285 0.0 3.2 0.00 0.00 0.00 20 1003.5
20260501221539 31 271 0.0 6.4 0.00 0.00 0.00 20 1003.7
20260501220020 31 302 3.2 8.0 0.00 0.00 0.00 21 1003.9
20260501214521 32 252 0.0 4.8 0.00 0.00 0.00 21 1004.1
20260501213001 31 39 1.6 4.8 0.00 0.00 0.00 20 1004.5
20260501211600 31 270 3.2 6.4 0.00 0.00 0.00 20 1004.6
20260501210042 31 225 0.0 6.4 0.00 0.00 0.00 22 1004.9
20260501204546 32 352 0.0 6.4 0.00 0.00 0.00 18 1005.0
20260501203022 31 125 1.6 4.8 0.00 0.00 0.00 20 1005.2
20260501201520 31 243 0.0 3.2 0.00 0.00 0.00 22 1005.4
20260501200003 30 297 3.2 11.3 0.00 0.00 0.00 22 1005.5
20260501194601 31 239 0.0 6.4 0.00 0.00 0.00 21 1005.6
20260501193041 30 112 0.0 3.2 0.00 0.00 0.00 23 1005.9
20260501191541 30 229 0.0 4.8 0.00 0.00 0.00 23 1006.1
20260501190023 30 98 0.0 6.4 0.00 0.00 0.00 24 1006.3
20260501184519 29 249 1.6 4.8 0.00 0.00 0.00 26 1006.6
20260501183112 28 220 0.0 6.4 0.00 0.00 0.00 26 1006.8
20260501181558 28 98 3.2 4.8 0.00 0.00 0.00 27 1007.1
20260501180041 28 143 1.6 4.8 0.00 0.00 0.00 27 1007.2
20260501174552 27 299 1.6 4.8 0.00 0.00 0.00 30 1007.3
20260501173019 27 279 0.0 6.4 0.00 0.00 0.00 29 1007.5
20260501171519 27 336 0.0 4.8 0.00 0.00 0.00 32 1007.5
20260501170116 27 154 0.0 1.6 0.00 0.00 0.00 32 1007.6
20260501164607 26 335 1.6 4.8 0.00 0.00 0.00 35 1007.6
20260501163103 25 321 0.0 3.2 0.00 0.00 0.00 36 1007.6
20260501161534 25 176 0.0 1.6 0.00 0.00 0.00 36 1007.6
20260501160036 25 95 0.0 1.6 0.00 0.00 0.00 36 1007.5
20260501154509 24 115 0.0 1.6 0.00 0.00 0.00 38 1007.5